Regional Weather Roundup
Issued by NWS

Home | Current Version | Previous Version | Graphics & Text | Print | Product List | Glossary On
Versions: 1 2 3 4 5 6 7 8 9 10 11 12 13 14 15 16 17 18 19 20 21 22 23 24 25 26 27 28 29 30 31 32 33 34 35 36 37 38 39 40 41 42 43 44 45 46 47 48 49 50
000
ASUS43 KFSD 180310
RWRSD

WEATHER ROUNDUP FOR SOUTH DAKOTA
NATIONAL WEATHER SERVICE SIOUX FALLS SD
900 PM CST SAT FEB 17 2018

NOTE: "FAIR" INDICATES FEW OR NO CLOUDS BELOW 12,000 FEET WITH NO
SIGNIFICANT WEATHER AND/OR OBSTRUCTIONS TO VISIBILITY.


SDZ001>005-009-010-012>017-180400-
NORTHWEST AND NORTH CENTRAL SOUTH DAKOTA

CITY           SKY/WX    TMP DP  RH WIND       PRES   REMARKS
BUFFALO          N/A     16  10  77 SE14      29.65F WCI   2
FAITH            N/A     15  11  83 SE12      29.81F WCI   2
MOBRIDGE       CLOUDY    17  11  77 CALM      29.89F
$$

SDZ012>016-024>037-041>051-057-063-072>074-180400-
SOUTHWEST AND SOUTH CENTRAL SOUTH DAKOTA

CITY           SKY/WX    TMP DP  RH WIND       PRES   REMARKS
RAPID CTY ARPT CLOUDY    23  20  88 SE8       29.74F WCI  14
PIERRE         CLOUDY    15  12  88 E6        29.92F WCI   6
CUSTER         CLOUDY    24  16  71 CALM      29.66F
ELLSWORTH AFB  CLOUDY    24  23  98 SE13      29.72F WCI  12
PHILIP         CLOUDY    23  19  85 E12       29.84F WCI  12
PINE RIDGE     CLOUDY    37  23  56 S20G26    29.74F
SPEARFISH        N/A     19  16  86 NW5       29.63F WCI  13
WINNER         FAIR      30  23  75 SE15      29.93F WCI  19
$$

SDZ004>011-016>023-039-040-180400-
NORTHEAST SOUTH DAKOTA

CITY           SKY/WX    TMP DP  RH WIND       PRES   REMARKS
ABERDEEN       CLOUDY    16  10  77 SW5       29.99F WCI   9
WATERTOWN      MOCLDY    15  11  83 SW6       29.99S WCI   6
BROOKINGS      CLEAR     20  16  84 S8        30.02F WCI  10
SISSETON         N/A     12   6  77 SW5       30.00F WCI   4
$$

SDZ017-020-022-023-036>040-048>070-180400-
SOUTHEAST SOUTH DAKOTA

CITY           SKY/WX    TMP DP  RH WIND       PRES   REMARKS
SIOUX FALLS    CLEAR     19  15  84 S5        30.05F WCI  12
HURON          CLEAR     22  18  85 S8        30.02F WCI  12
CHAMBERLAIN    MOCLDY    24  23  95 E8        29.96F WCI  15
MITCHELL       CLEAR     20  18  92 SE5       30.04F WCI  13
YANKTON        CLEAR     25  22  88 E3        30.06F
$$

ABBREVIATIONS USED IN REMARKS
   TC - TEMPERATURE IN CELSIUS
  WCI - WIND CHILL INDEX
   HX - HEAT INDEX
  VSB - VISIBILITY





USA.gov is the U.S. government's official web portal to all federal, state and local government web resources and services.